Probability
3 29 87 94 87 90 90 90 90 90 94 94 94 94 94 94 90 90 94 94 90 87 81 81 77 74 77 81 77 77 81 81 81 84 84 84 87 90 90 84 87 68 90
10 35 90 94 90 94 90 87 90 90 94 94 94 94 94 94 94 94 94 90 87 87 81 84 84 81 87 81 81 84 84 84 87 84 84 84 84 87 84 81 87 84 94
23 42 61 94 94 90 90 90 94 97 94 94 94 94 94 94 94 90 90 90 90 90 87 84 81 81 77 81 84 84 84 90 84 81 81 58 74 81 81 84 87 87 90
26 42 65 94 94 90 94 94 90 97 97 94 94 94 94 90 94 94 94 90 90 90 84 84 81 81 84 87 84 87 81 81 71 71 48 42 58 74 77 77 84 90 77
32 52 81 90 97 94 94 94 94 97 97 94 94 94 94 90 90 90 90 90 90 90 84 84 84 84 81 81 77 81 77 71 52 48 39 61 74 77 74 81 84 81 71
29 45 74 97 97 97 97 100 97 97 97 97 94 94 90 90 90 90 90 90 90 87 81 81 81 81 77 77 77 74 71 61 58 26 26 52 68 77 74 77 68 58 71
16 42 74 94 100 100 94 97 97 90 97 97 97 97 90 90 94 94 90 87 87 87 84 84 74 74 74 77 68 61 61 58 39 23 26 52 74 81 77 68 74 61 68
16 32 71 87 94 94 94 94 94 94 100 97 97 97 94 90 90 94 94 87 87 84 81 77 77 74 68 71 71 61 52 52 10 6 23 42 84 77 74 65 55 61 65
13 23 58 71 77 90 94 94 97 97 100 100 100 97 97 94 87 87 94 94 77 71 74 68 55 65 71 71 61 68 45 32 10 10 13 42 71 81 68 52 52 61 65
19 23 55 58 71 68 77 94 90 94 97 100 100 97 100 100 87 87 81 81 65 71 65 61 61 65 68 61 68 58 48 35 6 3 23 35 81 68 61 58 48 65 61
29 42 42 52 52 61 48 65 81 94 94 94 97 90 90 77 45 68 68 74 61 58 52 48 45 45 68 65 61 58 45 29 6 16 23 45 58 58 61 65 55 45 48
35 29 42 45 58 65 45 71 74 74 81 90 94 77 74 84 68 35 68 68 58 48 48 48 45 35 32 35 42 45 32 26 16 16 32 58 48 55 58 61 61 48 58
39 35 29 52 65 55 68 68 65 77 87 77 81 77 94 65 55 39 65 68 61 39 29 35 29 23 16 35 45 26 26 23 26 19 29 58 65 68 45 45 61 58 58
42 48 39 58 65 77 77 65 68 68 77 58 87 68 58 65 65 61 58 45 52 45 45 29 45 26 19 19 26 19 23 29 29 35 65 58 61 61 48 45 52 45 52
58 58 58 65 74 87 97 84 65 68 65 61 74 68 65 52 48 45 71 61 35 29 29 42 35 39 29 29 13 19 16 23 19 35 45 58 52 58 55 52 32 58 55
55 61 74 77 74 90 87 87 81 71 84 68 68 71 71 65 61 55 65 68 39 32 32 39 39 55 39 35 26 26 26 26 48 48 35 55 48 58 58 52 52 58 52
58 71 77 81 84 87 84 81 71 61 61 65 74 77 74 58 74 68 58 68 52 45 55 58 45 48 45 42 35 35 42 42 52 52 45 45 61 55 58 65 61 55 58
58 84 94 58 84 90 90 87 71 68 68 71 61 68 77 77 77 81 58 55 55 35 52 61 58 48 52 58 52 52 52 68 52 58 55 61 65 39 45 52 55 55 55
84 81 94 87 87 94 94 94 81 87 87 74 77 71 77 77 71 77 77 74 71 61 58 52 58 61 71 68 48 68 55 58 52 39 42 32 45 52 48 45 48 58 58
81 90 90 100 100 97 94 97 97 87 81 81 77 84 81 81 71 74 71 77 68 71 81 74 74 77 81 74 45 39 55 52 48 52 45 39 42 42 35 32 58 55 45
90 87 94 97 100 100 97 87 90 84 90 84 74 77 81 81 81 81 68 84 81 74 71 55 71 77 68 74 58 48 45 42 55 58 45 48 32 32 39 42 61 65 68
90 90 94 94 97 97 100 100 100 100 77 81 77 84 81 77 71 61 81 74 77 84 77 74 90 71 58 61 65 52 32 35 61 6 48 55 35 42 32 32 55 58 55
90 87 84 90 97 97 100 90 87 94 77 74 77 84 77 77 77 81 71 71 77 74 77 84 81 77 77 68 55 52 45 26 10 10 29 23 42 45 35 29 39 55 55
87 81 87 87 97 97 100 94 84 81 74 71 71 68 81 81 81 81 77 77 81 77 84 74 71 77 77 68 55 52 35 26 32 16 13 19 35 52 42 23 23 35 45
81 84 84 87 84 87 87 87 94 74 71 65 65 68 71 68 71 68 68 74 74 71 71 71 77 71 71 68 55 52 45 52 48 48 29 19 26 42 32 39 42 39 48
71 71 77 81 81 81 84 77 81 77 77 68 77 68 65 65 71 61 58 74 71 68 71 74 71 65 65 71 65 55 55 52 48 48 45 39 35 23 19 42 32 35 42
Height
5895 5894 5894 5894 5893 5893 5892 5892 5891 5891 5890 5890 5889 5889 5889 5889 5889 5888 5888 5888 5888 5888 5889 5889 5889 5889 5889 5889 5890 5890 5890 5891 5891 5892 5892 5893 5894 5894 5895 5895 5895 5895 5896
5897 5896 5896 5896 5895 5894 5894 5893 5893 5892 5892 5892 5891 5891 5891 5890 5890 5890 5890 5890 5890 5890 5890 5891 5891 5891 5891 5891 5892 5892 5892 5892 5893 5894 5894 5894 5895 5895 5896 5896 5897 5897 5897
5898 5898 5898 5897 5897 5896 5895 5895 5894 5894 5894 5893 5893 5893 5892 5892 5892 5892 5892 5892 5892 5892 5892 5892 5893 5893 5893 5893 5893 5893 5893 5894 5895 5895 5896 5896 5896 5897 5897 5898 5898 5898 5898
5900 5899 5899 5899 5898 5898 5897 5897 5896 5896 5895 5895 5895 5894 5894 5894 5894 5894 5894 5894 5893 5894 5894 5894 5894 5895 5895 5895 5895 5895 5895 5896 5896 5897 5897 5897 5897 5898 5898 5899 5899 5899 5899
5901 5901 5901 5900 5900 5899 5899 5898 5898 5897 5897 5897 5896 5896 5896 5896 5896 5896 5895 5895 5895 5895 5896 5896 5896 5896 5896 5896 5896 5896 5897 5897 5898 5898 5898 5899 5899 5899 5900 5900 5900 5900 5900
5903 5902 5902 5902 5902 5901 5900 5900 5900 5899 5899 5898 5898 5898 5898 5898 5897 5897 5897 5897 5897 5897 5897 5897 5897 5897 5897 5898 5898 5898 5898 5899 5900 5900 5900 5900 5900 5900 5901 5901 5901 5902 5902
5904 5904 5904 5903 5903 5902 5902 5901 5901 5901 5900 5900 5900 5900 5899 5899 5899 5899 5899 5899 5899 5898 5898 5898 5898 5898 5898 5899 5899 5900 5900 5901 5901 5901 5901 5902 5902 5902 5902 5902 5902 5903 5903
5905 5905 5905 5904 5904 5904 5903 5903 5902 5902 5902 5901 5901 5901 5901 5901 5901 5900 5900 5900 5900 5900 5899 5900 5900 5900 5900 5900 5901 5901 5902 5902 5903 5903 5903 5903 5903 5903 5903 5903 5903 5904 5904
5907 5906 5906 5905 5905 5905 5904 5904 5903 5903 5903 5903 5903 5902 5902 5902 5902 5902 5902 5902 5901 5901 5901 5901 5901 5901 5902 5902 5902 5903 5903 5904 5904 5904 5904 5904 5904 5904 5904 5904 5904 5904 5905
5908 5908 5907 5907 5906 5906 5905 5905 5905 5904 5904 5904 5904 5904 5904 5903 5903 5903 5903 5903 5903 5903 5903 5903 5903 5903 5903 5903 5904 5904 5905 5905 5905 5905 5905 5905 5905 5905 5905 5905 5905 5906 5906
5909 5909 5908 5908 5907 5907 5906 5905 5905 5905 5905 5905 5904 5904 5904 5905 5905 5904 5904 5904 5904 5904 5904 5904 5904 5904 5905 5905 5905 5906 5906 5906 5906 5906 5906 5906 5906 5906 5906 5906 5906 5906 5906
5911 5910 5909 5909 5908 5908 5907 5906 5906 5906 5906 5906 5906 5905 5905 5905 5905 5906 5905 5905 5905 5905 5905 5906 5906 5906 5906 5906 5907 5907 5907 5907 5907 5907 5907 5907 5907 5907 5907 5907 5907 5907 5907
5912 5911 5910 5909 5909 5909 5908 5908 5907 5907 5907 5907 5907 5907 5907 5907 5906 5906 5906 5906 5906 5907 5907 5907 5907 5907 5907 5908 5908 5908 5908 5908 5908 5908 5908 5908 5908 5908 5908 5908 5907 5907 5907
5913 5912 5911 5910 5910 5910 5909 5909 5909 5909 5908 5908 5908 5908 5908 5907 5907 5907 5907 5907 5908 5908 5908 5908 5908 5908 5908 5909 5909 5909 5909 5909 5909 5909 5909 5909 5908 5908 5908 5908 5908 5908 5907
5915 5913 5912 5912 5911 5911 5910 5910 5910 5910 5909 5909 5908 5908 5908 5908 5908 5908 5908 5908 5909 5909 5909 5909 5909 5909 5909 5910 5910 5910 5910 5910 5909 5909 5909 5909 5909 5909 5908 5908 5908 5907 5907
5916 5914 5913 5912 5912 5911 5911 5911 5910 5910 5910 5909 5909 5909 5909 5909 5909 5909 5909 5909 5909 5909 5910 5910 5910 5910 5910 5910 5910 5910 5910 5910 5910 5909 5909 5909 5908 5908 5908 5908 5908 5907 5907
5917 5916 5914 5913 5912 5912 5912 5911 5911 5910 5910 5910 5910 5910 5910 5910 5909 5909 5910 5910 5910 5910 5910 5910 5910 5910 5911 5911 5911 5910 5910 5910 5910 5909 5909 5909 5908 5908 5908 5907 5907 5906 5906
5918 5917 5915 5914 5914 5913 5912 5912 5911 5911 5911 5910 5910 5910 5910 5910 5910 5910 5910 5910 5910 5910 5910 5910 5910 5910 5910 5910 5910 5910 5910 5910 5909 5909 5909 5908 5908 5907 5907 5907 5906 5906 5905
5919 5918 5916 5915 5914 5914 5913 5913 5912 5911 5911 5911 5910 5910 5910 5910 5910 5910 5910 5910 5909 5909 5910 5910 5910 5910 5910 5910 5910 5910 5909 5909 5909 5909 5908 5908 5907 5907 5906 5906 5905 5905 5904
5920 5918 5917 5916 5915 5914 5913 5913 5912 5912 5911 5911 5910 5910 5910 5910 5910 5910 5910 5909 5909 5909 5909 5910 5910 5909 5909 5909 5909 5909 5908 5908 5908 5908 5907 5907 5906 5905 5905 5904 5904 5903 5903
5920 5918 5917 5916 5915 5914 5913 5913 5912 5912 5911 5911 5910 5910 5910 5910 5910 5910 5909 5909 5909 5909 5909 5909 5909 5909 5908 5908 5908 5908 5907 5907 5906 5906 5906 5905 5904 5904 5903 5902 5902 5901 5900
5920 5918 5917 5917 5916 5914 5913 5913 5912 5912 5911 5911 5910 5910 5910 5910 5909 5909 5909 5909 5908 5908 5908 5908 5908 5907 5907 5906 5906 5906 5906 5906 5905 5904 5903 5903 5902 5901 5901 5900 5900 5899 5898
5920 5919 5917 5916 5915 5914 5913 5913 5912 5911 5911 5910 5910 5909 5909 5909 5909 5908 5908 5908 5907 5907 5907 5906 5906 5905 5905 5905 5904 5904 5904 5903 5902 5902 5901 5900 5899 5899 5898 5898 5897 5896 5895
5920 5918 5917 5916 5915 5914 5913 5912 5911 5910 5910 5909 5909 5908 5908 5908 5908 5907 5907 5906 5906 5906 5905 5905 5904 5903 5903 5902 5902 5901 5901 5900 5899 5899 5898 5897 5896 5896 5895 5894 5894 5893 5892
5920 5918 5916 5915 5914 5913 5912 5911 5910 5909 5908 5908 5908 5907 5907 5907 5906 5906 5905 5905 5904 5904 5903 5902 5902 5901 5900 5899 5899 5898 5897 5897 5896 5895 5895 5894 5893 5892 5891 5891 5890 5889 5888
5919 5917 5915 5914 5912 5911 5910 5910 5909 5908 5907 5907 5906 5906 5905 5905 5905 5904 5904 5903 5902 5902 5901 5900 5899 5898 5897 5896 5895 5894 5894 5893 5892 5891 5890 5890 5889 5889 5888 5887 5886 5885 5883
Wind_Speed
11 11 11 10 10 11 12 13 13 14 14 14 14 13 13 14 13 13 12 12 12 11 11 11 11 11 11 11 11 11 11 11 11 10 10 9 9 8 8 8 7 7 6
10 10 10 10 10 11 11 12 13 14 14 14 14 13 13 13 13 12 12 11 11 11 11 11 10 10 10 11 11 11 11 11 10 10 9 9 8 8 8 7 7 7 6
10 10 10 9 10 10 11 12 13 13 13 13 14 13 13 13 12 12 12 11 11 11 11 10 10 9 10 10 11 11 11 10 9 9 9 9 8 8 7 7 6 6 6
9 9 9 10 10 10 11 11 12 12 12 13 13 13 13 12 12 11 11 11 11 11 10 10 10 9 9 10 10 10 10 10 10 9 9 9 8 8 7 7 6 6 6
9 8 9 9 9 9 10 11 11 12 12 12 12 12 12 12 12 12 11 11 11 10 10 9 9 9 9 9 9 10 10 10 10 9 9 8 8 8 7 7 7 6 5
8 8 8 8 8 9 10 10 10 11 11 12 12 12 12 12 12 11 11 10 10 10 10 9 8 8 9 9 9 10 10 10 9 9 9 9 8 8 8 7 6 6 6
8 7 7 7 7 8 8 9 9 10 11 11 11 11 11 11 11 10 10 9 9 9 9 8 8 8 9 9 9 10 9 9 9 9 8 8 8 8 7 6 6 6 7
7 6 6 6 7 7 8 8 8 9 9 10 10 10 10 10 10 10 9 9 9 9 8 8 8 8 9 9 9 9 9 9 8 8 7 7 7 7 7 6 6 6 6
7 6 5 6 7 6 7 7 7 8 8 8 8 9 9 9 9 9 9 8 9 9 9 9 9 9 8 9 9 9 8 8 8 7 7 6 6 6 6 6 5 6 6
7 6 6 5 5 5 6 6 6 7 8 8 8 8 8 8 8 8 8 8 8 8 8 8 8 8 8 9 8 8 8 7 7 7 6 6 5 5 5 5 5 5 5
7 6 5 5 4 4 5 6 6 7 7 7 7 7 7 7 7 8 8 8 8 8 8 8 7 8 8 8 8 7 7 7 7 6 6 5 5 5 5 5 4 4 4
6 5 5 5 4 4 5 5 6 6 7 7 7 7 6 7 7 7 7 8 8 8 8 7 7 7 7 7 7 7 6 6 6 5 5 5 5 5 4 4 3 3 3
7 5 5 4 4 4 5 5 5 5 5 6 6 6 7 6 6 6 7 7 7 7 7 7 7 6 6 6 6 5 5 5 5 4 4 3 3 3 3 3 2 2 2
8 7 6 5 5 5 5 5 5 5 5 5 5 6 6 6 6 6 6 6 6 6 5 5 6 6 5 5 5 4 4 4 3 3 3 3 2 2 2 2 1 1 1
8 7 6 5 5 5 5 5 5 5 5 4 4 4 5 6 6 6 6 6 5 5 5 4 4 4 5 5 4 3 3 2 2 1 1 1 1 1 1 1 1 0 1
8 7 6 6 5 5 5 4 5 5 5 5 4 5 5 5 5 5 5 5 5 4 4 3 3 3 4 3 3 3 2 1 1 0 0 1 1 1 2 2 2 2 2
8 7 6 5 5 4 4 4 4 4 4 4 4 4 4 4 4 4 4 4 3 3 3 2 3 2 2 2 1 1 0 0 1 1 1 2 2 2 3 2 2 3 3
8 7 6 5 5 4 4 3 2 2 2 2 2 3 3 3 3 3 2 2 1 1 2 2 2 2 1 1 1 1 2 2 2 2 2 3 3 4 4 4 4 4 4
7 6 5 5 4 4 3 2 2 2 1 0 0 1 1 1 2 2 1 1 1 1 1 1 1 2 2 2 2 3 3 4 4 4 4 5 5 5 5 6 6 6 6
7 6 5 4 4 3 3 3 2 2 2 1 1 1 0 1 1 1 1 1 1 1 2 2 2 3 3 4 4 4 5 6 6 6 7 7 7 7 7 7 8 8 8
8 6 5 5 4 3 3 3 3 3 3 2 2 2 2 2 3 3 2 2 3 2 3 3 4 4 5 5 6 6 7 7 8 8 9 9 9 9 9 9 10 10 11
9 7 5 4 4 4 4 4 4 4 3 3 3 3 3 3 4 4 5 4 4 4 5 6 6 7 7 7 8 8 8 9 9 10 10 11 11 11 10 11 11 12 12
9 8 6 6 5 5 5 5 5 5 4 4 4 4 5 5 5 6 6 6 6 7 7 8 8 8 9 9 10 10 11 11 11 12 12 12 12 12 12 12 13 13 14
10 9 7 7 6 6 7 6 6 6 6 6 6 6 6 6 6 6 7 7 8 9 9 9 10 10 11 11 11 12 12 13 13 13 13 13 13 13 13 14 14 15 16
11 10 9 8 8 7 7 7 7 7 7 7 7 7 7 6 7 7 7 8 8 9 9 10 10 11 12 13 13 13 13 14 14 14 14 14 14 14 14 15 15 16 17
11 11 9 9 9 8 8 8 7 7 7 8 8 8 8 8 8 8 8 9 9 9 10 11 12 13 13 14 14 14 15 15 15 14 14 15 15 16 16 17 16 17 18
Wind_Direction
79 80 84 88 89 89 91 91 92 92 91 89 89 88 90 91 90 91 95 96 97 97 96 94 93 95 98 100 100 104 107 110 112 115 120 120 121 122 122 121 121 118 116
83 87 89 90 89 90 90 89 90 92 92 90 88 88 90 90 89 92 95 100 102 103 101 96 95 98 101 106 105 105 109 110 111 111 115 117 119 119 119 120 119 117 114
86 91 91 92 92 92 91 90 92 89 89 91 90 90 90 91 92 93 95 96 99 104 102 99 99 101 104 104 105 107 108 110 111 113 115 114 116 116 117 122 123 118 115
84 90 92 96 95 95 95 94 94 92 91 91 91 91 91 92 90 91 90 89 91 97 99 101 101 100 101 102 104 106 104 104 107 110 113 113 114 114 117 119 120 120 120
80 88 92 97 98 97 97 96 95 95 94 93 93 94 93 93 90 88 87 88 91 96 101 104 106 104 102 103 105 106 108 108 110 110 112 112 112 112 116 117 117 117 123
77 84 92 97 97 97 99 99 97 95 96 97 97 99 97 95 91 88 87 89 90 95 100 103 104 108 105 104 106 108 109 110 111 112 113 113 112 112 116 117 112 115 123
76 83 92 98 97 98 99 101 100 97 98 100 100 101 99 97 93 90 88 90 91 95 99 101 104 106 107 107 106 107 109 108 108 110 112 112 111 111 114 119 117 117 121
76 80 87 96 102 99 99 102 104 102 102 102 102 103 102 100 98 95 91 91 95 97 99 101 103 106 108 106 106 107 107 109 109 110 113 113 113 113 113 111 115 123 121
76 80 86 99 103 101 98 102 105 104 102 102 102 105 105 102 99 96 94 93 95 97 101 104 105 106 109 108 108 109 110 111 111 112 111 113 114 115 113 114 112 121 125
71 78 85 95 99 98 97 101 106 107 103 103 105 108 108 104 99 98 98 97 98 99 101 105 110 112 111 110 107 107 110 112 115 112 110 110 109 111 113 115 115 119 126
64 73 84 91 94 87 89 100 110 108 104 103 103 104 107 106 101 98 99 98 100 101 104 105 109 113 112 111 110 108 109 111 118 115 112 110 109 110 114 116 113 113 120
57 63 68 84 87 76 80 93 103 110 106 102 101 101 102 107 100 99 102 102 104 105 105 108 111 113 114 113 113 112 112 111 114 110 110 113 113 112 110 110 116 118 124
50 54 60 72 78 80 81 88 97 105 110 106 101 101 100 101 103 103 103 105 107 108 107 107 110 115 115 116 119 118 112 111 111 105 104 108 112 113 106 104 113 126 136
47 52 56 68 77 83 89 85 85 89 103 107 102 97 96 102 108 106 107 109 110 109 110 111 111 112 113 116 115 116 114 113 112 104 105 107 97 96 102 106 118 131 142
46 49 52 61 72 80 82 87 83 83 81 91 99 95 99 106 106 106 109 109 108 109 112 116 113 113 111 109 110 110 110 117 118 115 106 105 68 50 36 34 13 243 260
42 45 51 58 65 71 81 88 85 82 75 78 91 98 103 107 105 103 103 104 106 108 113 116 117 121 125 122 117 109 108 115 97 45 292 287 313 313 327 330 329 310 279
35 39 49 55 58 69 77 84 80 76 74 71 85 92 94 99 102 102 99 106 104 104 117 129 133 132 144 149 147 150 106 68 337 301 283 284 291 288 288 297 303 313 314
26 33 43 53 57 66 71 77 73 70 72 70 88 94 90 87 90 102 100 98 109 109 128 162 180 179 196 221 247 266 279 292 307 304 290 289 295 289 285 289 295 303 305
17 24 34 45 49 53 51 48 42 44 35 40 81 93 79 61 70 73 56 42 14 198 193 208 219 231 242 267 274 283 290 290 290 292 288 292 295 292 285 288 289 291 295
5 8 20 30 30 33 35 30 18 5 353 317 309 318 312 296 319 341 344 357 343 279 249 258 288 270 265 276 285 286 286 288 288 289 288 289 288 287 287 287 288 287 287
0 358 4 9 7 5 7 1 343 340 343 331 311 303 302 287 290 292 296 320 318 315 288 282 290 291 281 281 286 285 282 284 288 288 289 289 289 288 284 284 287 286 285
356 353 351 350 349 339 340 338 329 325 332 318 307 295 293 298 292 284 284 292 298 295 288 283 285 286 285 284 284 286 283 285 286 288 288 288 288 287 283 280 283 284 286
344 343 341 335 330 330 325 321 315 310 311 307 295 286 286 290 291 286 283 284 287 290 287 282 282 283 284 285 285 284 284 285 289 288 290 289 288 285 282 281 280 281 282
339 333 327 327 320 317 316 315 308 305 300 294 290 285 286 290 294 289 286 289 290 290 290 286 283 282 284 287 288 284 283 284 286 287 288 286 287 286 282 279 279 281 282
337 332 324 318 310 309 307 306 304 300 296 291 288 285 282 284 287 286 287 293 292 291 293 293 290 287 285 285 286 286 284 283 284 285 284 283 283 284 284 280 278 280 284
332 328 321 318 312 305 302 303 302 302 299 295 289 285 281 283 285 285 286 287 289 290 291 293 294 292 287 285 286 287 285 285 285 283 279 280 282 282 283 282 280 281 284